Thomson, GA

7:51 AM EST on December 09, 2016 (GMT -0500)
Thomson-McDuffie County

Weather History for KHQU - January, 2013

Change the Weather History Date:

Wednesday, January 30, 2013

  Actual Average (KDNL) Record (KDNL)
Temperature  
Mean Temperature 62 °F -  
Max Temperature 73 °F 54 °F 79 °F (2002)
Min Temperature 49 °F 37 °F 21 °F (2014)
Degree Days  
Heating Degree Days 4    
Growing Degree Days 12 (Base 50)    
Moisture  
Dew Point 62 °F    
Average Humidity 88    
Maximum Humidity 100    
Minimum Humidity 73    
Precipitation  
Precipitation 0.00 in - - ()
Sea Level Pressure  
Sea Level Pressure 29.84 in    
Wind  
Wind Speed 10 mph (South)    
Max Wind Speed 23 mph    
Max Gust Speed 37 mph    
Visibility 10 miles    
Events      
Averages and records for this station are not official NWS values.
T = Trace of Precipitation, MM = Missing Value Source: NWS Daily Summary

Daily Weather History Graph

Daily Weather History Graph

Search for Another Location

Airport or City:

Trip Planner

Search our weather history database for the weather conditions in past years. The results will help you decide how hot, cold, wet, or windy it might be!

Date:

Astronomy

Jan. 30, 2013 Rise Set
Actual Time 7:27 AM EST 5:59 PM EST
Civil Twilight 7:01 AM EST 6:25 PM EST
Nautical Twilight 6:31 AM EST 6:55 PM EST
Astronomical Twilight 6:02 AM EST 7:25 PM EST
Moon 9:42 PM EST (1/30) 9:07 AM EST (1/30)
Length of Visible Light 11h 24m
Length of Day
10h 32m
Waning Gibbous, 88% of the Moon is Illuminated
Jan 30
Waning Gibbous
Feb 3
Last Quarter
Feb 10
New
Feb 17
First Quarter
Feb 25
Full

Hourly Weather History & Observations

Time (EST) Temp. Dew Point Humidity Pressure Visibility Wind Dir Wind Speed Gust Speed Precip Events Conditions
12:15 AM 65.5 °F 62.6 °F 90% 30.08 in 10.0 mi South 8.1 mph - N/A   Clear
12:35 AM 65.3 °F 62.6 °F 91% 30.08 in 10.0 mi South 5.8 mph - N/A   Clear
12:55 AM 64.8 °F 62.6 °F 93% 30.08 in 10.0 mi South 9.2 mph - N/A   Mostly Cloudy
1:15 AM 64.8 °F 62.6 °F 93% 30.08 in 10.0 mi South 5.8 mph - N/A   Overcast
1:35 AM 64.6 °F 62.6 °F 93% 30.07 in 10.0 mi South 6.9 mph - N/A   Overcast
1:55 AM 64.4 °F 62.6 °F 94% 30.06 in 10.0 mi SSE 8.1 mph - N/A   Overcast
2:15 AM 64.4 °F 62.6 °F 94% 30.05 in 10.0 mi South 6.9 mph - N/A   Overcast
2:35 AM 64.4 °F 62.8 °F 94% 30.03 in 10.0 mi SSE 9.2 mph - N/A   Overcast
2:55 AM 64.2 °F 63.0 °F 96% 30.03 in 10.0 mi South 8.1 mph - N/A   Overcast
3:15 AM 63.9 °F 63.0 °F 97% 30.02 in 10.0 mi South 8.1 mph 19.6 mph N/A   Mostly Cloudy
3:35 AM 63.7 °F 63.3 °F 99% 30.01 in 10.0 mi South 6.9 mph - N/A   Scattered Clouds
3:55 AM 64.0 °F 63.5 °F 98% 30.00 in 10.0 mi South 5.8 mph - N/A   Mostly Cloudy
4:15 AM 64.4 °F 63.5 °F 97% 29.99 in 10.0 mi SSE 8.1 mph - N/A   Mostly Cloudy
4:35 AM 64.0 °F 63.5 °F 98% 29.97 in 10.0 mi South 9.2 mph - N/A   Mostly Cloudy
4:55 AM 64.4 °F 63.3 °F 96% 29.97 in 10.0 mi South 9.2 mph 16.1 mph N/A   Scattered Clouds
5:15 AM 64.8 °F 63.5 °F 96% 29.97 in 10.0 mi South 8.1 mph - N/A   Mostly Cloudy
5:35 AM 64.8 °F 63.5 °F 96% 29.96 in 10.0 mi South 11.5 mph - N/A   Mostly Cloudy
5:55 AM 64.4 °F 63.3 °F 96% 29.96 in 10.0 mi South 10.4 mph 16.1 mph N/A   Scattered Clouds
6:15 AM 64.9 °F 63.5 °F 95% 29.96 in 10.0 mi South 9.2 mph 16.1 mph N/A   Scattered Clouds
6:35 AM 65.3 °F 63.9 °F 95% 29.96 in 10.0 mi South 8.1 mph 18.4 mph N/A   Overcast
6:55 AM 65.8 °F 64.0 °F 94% 29.96 in 10.0 mi South 6.9 mph - N/A   Overcast
7:15 AM 65.8 °F 64.4 °F 95% 29.96 in 10.0 mi South 6.9 mph 16.1 mph N/A   Overcast
7:35 AM 65.8 °F 64.4 °F 95% 29.94 in 10.0 mi North - - N/A   Overcast
7:55 AM 66.2 °F 64.4 °F 94% 29.94 in 10.0 mi South 9.2 mph 16.1 mph N/A   Overcast
8:15 AM 66.6 °F 64.6 °F 93% 29.94 in 10.0 mi South 9.2 mph 19.6 mph N/A   Overcast
8:35 AM 67.1 °F 64.8 °F 92% 29.94 in 10.0 mi South 9.2 mph 25.3 mph N/A   Overcast
8:55 AM 67.6 °F 64.8 °F 90% 29.94 in 10.0 mi South 12.7 mph 20.7 mph N/A   Overcast
9:15 AM 68.4 °F 64.6 °F 88% 29.95 in 10.0 mi South 13.8 mph 23.0 mph N/A   Overcast
9:35 AM 69.3 °F 64.4 °F 84% 29.94 in 10.0 mi South 15.0 mph 23.0 mph N/A   Overcast
9:55 AM 69.8 °F 64.4 °F 83% 29.92 in 10.0 mi South 12.7 mph 26.5 mph N/A   Overcast
10:15 AM 70.7 °F 64.4 °F 80% 29.91 in 10.0 mi South 12.7 mph 29.9 mph N/A   Overcast
10:35 AM 71.4 °F 64.4 °F 78% 29.89 in 10.0 mi South 16.1 mph 25.3 mph N/A   Overcast
10:55 AM 72.0 °F 64.4 °F 77% 29.89 in 10.0 mi South 15.0 mph 26.5 mph N/A   Overcast
11:15 AM 72.0 °F 64.0 °F 76% 29.88 in 10.0 mi South 15.0 mph 28.8 mph N/A   Overcast
11:35 AM 72.5 °F 63.7 °F 74% 29.86 in 10.0 mi South 12.7 mph 32.2 mph N/A   Overcast
11:55 AM 72.3 °F 63.5 °F 74% 29.86 in 10.0 mi South 13.8 mph 36.8 mph N/A   Overcast
12:15 PM 72.3 °F 63.5 °F 74% 29.84 in 10.0 mi South 23.0 mph 33.4 mph N/A   Overcast
12:35 PM 72.5 °F 63.5 °F 73% 29.83 in 10.0 mi South 17.3 mph 29.9 mph N/A   Overcast
12:55 PM 72.1 °F 63.5 °F 74% 29.81 in 10.0 mi South 12.7 mph 27.6 mph N/A   Overcast
1:15 PM 72.7 °F 64.0 °F 74% 29.79 in 10.0 mi South 17.3 mph 25.3 mph N/A   Overcast
1:35 PM 72.7 °F 63.9 °F 74% 29.77 in 10.0 mi South 17.3 mph 29.9 mph N/A   Overcast
1:55 PM 73.4 °F 64.2 °F 73% 29.75 in 10.0 mi South 11.5 mph 31.1 mph N/A   Overcast
2:15 PM 73.2 °F 64.6 °F 74% 29.74 in 10.0 mi South 11.5 mph 21.9 mph N/A   Overcast
2:35 PM 71.1 °F 65.5 °F 82% 29.73 in 10.0 mi South 9.2 mph 25.3 mph N/A   Overcast
2:55 PM 71.4 °F 66.0 °F 83% 29.72 in 10.0 mi South 11.5 mph 16.1 mph N/A   Overcast
3:15 PM 72.1 °F 66.0 °F 81% 29.70 in 10.0 mi South 6.9 mph 23.0 mph N/A   Mostly Cloudy
3:35 PM 72.1 °F 65.7 °F 80% 29.70 in 10.0 mi South 11.5 mph 21.9 mph N/A   Mostly Cloudy
3:55 PM 73.0 °F 65.7 °F 78% 29.67 in 10.0 mi South 13.8 mph 26.5 mph N/A   Mostly Cloudy
4:15 PM 73.6 °F 65.5 °F 76% 29.65 in 10.0 mi South 12.7 mph 23.0 mph N/A   Overcast
4:35 PM 73.6 °F 64.9 °F 74% 29.66 in 10.0 mi South 10.4 mph 35.7 mph N/A   Overcast
4:55 PM 72.0 °F 64.9 °F 78% 29.64 in 10.0 mi South 16.1 mph 28.8 mph N/A   Overcast
5:15 PM 71.4 °F 65.3 °F 81% 29.63 in 10.0 mi South 16.1 mph 33.4 mph N/A   Overcast
5:35 PM 72.0 °F 64.9 °F 78% 29.62 in 10.0 mi South 13.8 mph 25.3 mph N/A   Overcast
5:55 PM 72.0 °F 65.1 °F 79% 29.60 in 10.0 mi South 15.0 mph 25.3 mph N/A   Overcast
6:15 PM 70.9 °F 65.3 °F 82% 29.58 in 10.0 mi South 12.7 mph 24.2 mph N/A   Overcast
6:35 PM 72.1 °F 65.1 °F 78% 29.58 in 10.0 mi SSW 16.1 mph 35.7 mph N/A   Overcast
6:55 PM 72.3 °F 65.5 °F 79% 29.60 in 7.0 mi SW 15.0 mph 34.5 mph N/A   Overcast
7:15 PM 62.4 °F 62.4 °F 100% 29.65 in 1.5 mi West 16.1 mph 25.3 mph N/A   Overcast
7:35 PM 61.5 °F 61.5 °F 100% 29.68 in 4.0 mi WSW 16.1 mph 28.8 mph N/A   Overcast
7:55 PM 58.6 °F 58.3 °F 99% 29.70 in 10.0 mi WSW 11.5 mph 23.0 mph N/A   Overcast
8:15 PM 57.0 °F 57.0 °F 100% 29.75 in 4.0 mi SW 12.7 mph 23.0 mph N/A   Overcast
8:35 PM 55.4 °F 55.4 °F 100% 29.75 in 4.0 mi SSW 11.5 mph 17.3 mph N/A   Unknown
8:55 PM 54.0 °F 54.0 °F 100% 29.72 in 10.0 mi SW 5.8 mph - N/A   Overcast
9:15 PM 53.2 °F 52.9 °F 99% 29.73 in 10.0 mi SW 8.1 mph - N/A   Overcast
9:35 PM 52.7 °F 50.9 °F 94% 29.73 in 10.0 mi SW 6.9 mph 20.7 mph N/A   Overcast
9:55 PM 51.8 °F 50.0 °F 94% 29.75 in 10.0 mi WSW 8.1 mph 17.3 mph N/A   Overcast
10:15 PM 50.7 °F 48.4 °F 92% 29.76 in 10.0 mi WSW 11.5 mph - N/A   Overcast
10:35 PM 50.4 °F 48.4 °F 93% 29.76 in 10.0 mi SW 6.9 mph - N/A   Overcast
10:55 PM 50.5 °F 48.6 °F 93% 29.78 in 10.0 mi WSW 8.1 mph - N/A   Overcast
11:15 PM 50.9 °F 48.4 °F 91% 29.78 in 10.0 mi WSW 8.1 mph - N/A   Overcast
11:35 PM 50.0 °F 48.7 °F 95% 29.78 in 7.0 mi SW 8.1 mph 17.3 mph N/A   Overcast
11:55 PM 49.5 °F 49.1 °F 99% 29.78 in 7.0 mi WSW 8.1 mph 19.6 mph N/A   Overcast